FLOCK 4A-16 (44099 NORAD) Tracking and Keplerian Element Data

This shows tracking and keplerian element data for the satellite.

Feedback or suggestion? Click here.




ElementValue
Catalog44099
NameFLOCK 4A-16
Epoch Orbit430
Epoch Day119.67287287
Epoch Year2019
RAAN180.0109
Inclination97.4611
Eccentricity0.0011674
Argument of Perigee188.0965
Mean Anonmoly172.0084
Mean Motion15.22110014
Decay Rate8.27E-06
L11 44099U 19018X 19119.67287287 .00000827 00000-0 39161-4 0 9994
L22 44099 97.4611 180.0109 0011674 188.0965 172.0084 15.22110014 4307

Live tracking and technical data element details for FLOCK 4A-16 (NORAD 44099). FLOCK 4A-16 can be tracked NOW for your location showing map with azimuth and elevation plus other details from your city location.

Track the satellite on the map from your city or location and see movement details for azimuth, elevation, latitude, longitude, range, height, and movement on the map or in text.







IsCatalogInMostPopularTable: catalog: 44099, numindb: 15
Update: records affected: 1



GetName: 44099 FLOCK 4A-16

Hit Count: updated at: Sat, 20 Jul 2019 22:03:54 GMT